Las Vegas, NV

12:43 AM PST on January 22, 2017 (GMT -0800)
Nellis Air Force Base

Weather History for KLSV - April, 2013

Change the Weather History Date:

Wednesday, April 10, 2013

  Actual Average Record
Temperature  
Mean Temperature 59 °F -  
Max Temperature 74 °F 73 °F 90 °F (2014)
Min Temperature 45 °F 50 °F 39 °F (2011)
Degree Days  
Heating Degree Days 6    
Growing Degree Days 9 (Base 50)    
Moisture  
Dew Point 20 °F    
Average Humidity 23    
Maximum Humidity 42    
Minimum Humidity 11    
Precipitation  
Precipitation 0.00 in - - ()
Sea Level Pressure  
Sea Level Pressure 30.02 in    
Wind  
Wind Speed 8 mph (NE)    
Max Wind Speed 15 mph    
Max Gust Speed -    
Visibility 10 miles    
Events      
Averages and records for this station are not official NWS values.
T = Trace of Precipitation, MM = Missing Value Source: NWS Daily Summary

Daily Weather History Graph

Daily Weather History Graph

Search for Another Location

Airport or City:

Trip Planner

Search our weather history database for the weather conditions in past years. The results will help you decide how hot, cold, wet, or windy it might be!

Date:

Astronomy

Apr. 10, 2013 Rise Set
Actual Time 6:13 AM PDT 7:10 PM PDT
Civil Twilight 5:46 AM PDT 7:36 PM PDT
Nautical Twilight 5:15 AM PDT 8:07 PM PDT
Astronomical Twilight 4:43 AM PDT 8:39 PM PDT
Moon 6:12 AM PDT (4/10) 7:48 PM PDT (4/10)
Length of Visible Light 13h 49m
Length of Day
12h 56m
New Moon, 0% of the Moon is Illuminated
Apr 10
New Moon
Apr 18
First Quarter
Apr 25
Full
May 2
Last Quarter
May 9
New

Hourly Weather History & Observations

Time (PDT) Temp. Windchill Dew Point Humidity Pressure Visibility Wind Dir Wind Speed Gust Speed Precip Events Conditions
12:58 AM 51.8 °F - 21.4 °F 30% 30.07 in 10.0 mi NNE 5.8 mph - N/A   Clear
1:58 AM 51.3 °F - 20.5 °F 30% 30.06 in 10.0 mi North 8.1 mph - N/A   Clear
2:58 AM 49.3 °F - 21.6 °F 34% 30.05 in 10.0 mi East 12.7 mph - N/A   Clear
3:58 AM 45.9 °F 40.4 °F 22.1 °F 39% 30.05 in 10.0 mi ENE 11.5 mph - N/A   Clear
4:58 AM 45.9 °F 41.7 °F 22.1 °F 39% 30.05 in 10.0 mi NE 8.1 mph - N/A   Clear
5:58 AM 45.3 °F 38.7 °F 23.5 °F 42% 30.08 in 10.0 mi ENE 15.0 mph - N/A   Clear
6:58 AM 46.8 °F - 22.8 °F 39% 30.11 in 10.0 mi Variable 5.8 mph - N/A   Clear
7:58 AM 53.4 °F - 22.1 °F 30% 30.12 in 10.0 mi ENE 11.5 mph - N/A   Clear
8:58 AM 58.5 °F - 21.9 °F 24% 30.13 in 10.0 mi NE 12.7 mph - N/A   Clear
9:12 AM 59.0 °F - 23.0 °F 25% 30.15 in 10.0 mi North 13.8 mph - N/A   Clear
9:58 AM 60.8 °F - 21.9 °F 22% 30.13 in 10.0 mi North 11.5 mph - N/A   Clear
10:58 AM 63.7 °F - 21.0 °F 20% 30.13 in 10.0 mi NNW 11.5 mph - N/A   Clear
11:58 AM 65.1 °F - 21.0 °F 19% 30.10 in 10.0 mi Variable 5.8 mph - N/A   Clear
12:58 PM 66.7 °F - 19.6 °F 17% 30.06 in 10.0 mi Variable 2.3 mph - N/A   Clear
1:58 PM 69.3 °F - 19.2 °F 15% 30.03 in 10.0 mi NNE 8.1 mph - N/A   Clear
2:58 PM 71.6 °F - 16.7 °F 12% 29.99 in 10.0 mi ENE 8.1 mph - N/A   Clear
3:58 PM 72.5 °F - 16.0 °F 12% 29.94 in 10.0 mi ENE 6.9 mph - N/A   Clear
4:58 PM 73.9 °F - 15.6 °F 11% 29.92 in 10.0 mi North 3.5 mph - N/A   Clear
5:58 PM 73.2 °F - 16.2 °F 11% 29.92 in 10.0 mi ENE 9.2 mph - N/A   Clear
6:58 PM 70.9 °F - 17.2 °F 13% 29.92 in 10.0 mi ENE 5.8 mph - N/A   Clear
7:58 PM 68.0 °F - 17.4 °F 14% 29.91 in 10.0 mi NE 6.9 mph - N/A   Clear
8:58 PM 64.4 °F - 17.6 °F 16% 29.92 in - WNW 4.6 mph - N/A   Clear
9:58 PM 62.1 °F - 19.8 °F 20% 29.93 in - NW 4.6 mph - N/A   Clear
10:58 PM 60.1 °F - 20.3 °F 22% 29.92 in 10.0 mi NNE 5.8 mph - N/A   Clear
11:58 PM 59.0 °F - 21.6 °F 24% 29.91 in 10.0 mi NNE 9.2 mph - N/A   Clear